Location: Ch�tillon
(48.8024°N, 2.2935°E)
Time: 18:15:30
(UTC+00:00)

RS-15 - Pass Details

Date: 30 June 2022
Orbit: 1881 x 2163 km, 64.8° (Epoch: 11 August)

Event Time Altitude Azimuth Distance (km) Brightness Sun altitude
Rises 23:42:13 0° 321° (NW) 5,699 11.4 -18.0°
Reaches altitude 10° 23:45:42 10° 319° (NW) 4,693 10.8 -18.0°
Maximum altitude 23:57:56 71° 240° (WSW) 2,235 8.2 -18.1°
Enters shadow 00:07:06 20° 162° (SSE) 3,798 9.0 -18.0°
